IRIDIUM 33 DEB, 40998

Orbit data source: Space-Track

IRIDIUM 33 DEB, 40998 is space debris in LEO originally from a launch on Sun, 14 Sep 1997 UTC launched from the Tyuratam Missile And Space Complex (TTMTR). The debris from Iridium 33, an American commercial communications satellite, has been tracked extensively since its accidental collision with the defunct Russian satellite Cosmos 2251 in 2009. This event, occurring at high speed in low Earth orbit (LEO), generated thousands of pieces of space debris, significantly increasing the risk of further collisions. The Iridium 33 debris cloud has impacted space traffic management and orbital debris mitigation strategies, making it a subject of ongoing study in space situational awareness.

Loading next visibility...
Identifier
40998, 1997-051ABL
Orbit
LEO
Country
Flag of USUS
Related business
Manufacturer
Unknown
Mission
Spacecraft
Bus & Motor
Unknown
Mass
Unknown
Launch date (UTC)
1997-09-14 (29 years ago)
Launch vehicle
Unknown
Launch site
Tyuratam Missile And Space Complex (TTMTR)
Object type
Payload
Rocket body
Debris
Shape & HBR
Unknown shape, 0.1 m
Radar Cross Section
Small (<0.1 m²)

Expand to show TLE details & history
Last TLE update: 2 days ago

TLE from 2 days ago
0 IRIDIUM 33 DEB
1 40998U 97051ABL 26119.42494392  .00001364  00000-0  38048-3 0  9998
2 40998  86.3857 354.8326 0007674   0.9383 120.3819 14.45628473 86706
Epoch: 2026-04-29T10:11Z
TLE epoch observation values (Epoch: 2026-04-29T10:11:55.154Z)
Latitude
58.51431°
Longitude
158.57875°
Altitude
752.706 km
Speed
7.482 km/s
True Right ascension
11h 15m 46s
True Declination
58° 21' 39"
Sunlit
Object was in daylight at epoch
Visualization orbit readout
Latitude
Unknown
Longitude
Unknown
Altitude
Unknown
Speed
Unknown
Apparent Right ascension
Unknown
Apparent Declination
Unknown
Sunlit
N/A
Visualization observer readout
Local Sidereal Time
01:15:38
Azimuth
Unknown
Elevation
Unknown
Doppler factor
Unknown
Orbital elements
Apogee altitude
742.371 km
Perigee altitude
731.451 km
Semi-major axis
7,115.048 km
Eccentricity
0.00077
Inclination
86.3857°
RAAN
354.8326°
Arg. of periapsis
0.9383°
True anomaly
120.45772°
Mean anomaly
120.3819°
Eccentric anomaly
120.41982°
Mean motion
3.6164 °/min
Orbital period
99.55 mins
BSTAR
0.00038048
Loading maneuver chart data...
Computing Atmospheric mass density...
Loading historical data...
Loading historical data...
Loading historical data...
Loading historical data...
Loading historical data...
Loading historical data...
Loading historical data...

Documentation

Showing up to 5 results
|